Regional Weather Roundup
Issued by NWS

Home | Current Version | Previous Version | Text Only | Print | Product List | Glossary On
Versions: 1 2 3 4 5 6 7 8 9 10 11 12 13 14 15 16 17 18 19 20 21 22 23 24 25 26 27 28 29 30 31 32 33 34 35 36 37 38 39 40 41 42 43 44 45 46 47 48 49 50
000
ASUS43 KLOT 011810
RWRIL

ILLINOIS REGIONAL WEATHER ROUNDUP
NATIONAL WEATHER SERVICE CHICAGO/ROMEOVILLE IL
1200 PM CST THU DEC 01 2022

NOTE: "FAIR" INDICATES FEW OR NO CLOUDS BELOW 12,000 FEET WITH NO
SIGNIFICANT WEATHER AND/OR OBSTRUCTIONS TO VISIBILITY.

* THESE STATIONS ARE NOT UNDER NWS QUALITY CONTROL. THEY ALSO MAY NOT
  REPORT WEATHER SUCH AS PRECIPITATION OR FOG.

ILZ001-002-007-009-015-016-024-011900-
NORTHWEST ILLINOIS

CITY           SKY/WX    TMP DP  RH WIND       PRES   REMARKS
MOLINE         SUNNY     35  14  42 SE13      30.37F WCI  26
6HR MIN TEMP:  13; 6HR MAX TEMP:  35;

$$

ILZ003-004-008-010-011-017-018-011900-
NORTH CENTRAL ILLINOIS

CITY           SKY/WX    TMP DP  RH WIND       PRES   REMARKS
ROCKFORD       MOSUNNY   30  14  51 S8        30.42F WCI  22
6HR MIN TEMP:  13; 6HR MAX TEMP:  30;

FREEPORT*      SUNNY     31  19  62 S9        30.40F WCI  23
ROCHELLE*      SUNNY     31  19  60 S10       30.40F WCI  22
DE KALB*       SUNNY     29  18  62 S12       30.41F WCI  19
PERU*          SUNNY     32  17  55 S13       30.42F WCI  22
$$

ILZ005-006-012>014-019>023-011900-
NORTHEAST ILLINOIS

CITY           SKY/WX    TMP DP  RH WIND       PRES   REMARKS
CHICAGO-OHARE  MOSUNNY   31  14  49 S8        30.42F WCI  23
6HR MIN TEMP:  18; 6HR MAX TEMP:  31;

CHICAGO-MIDWAY PTSUNNY   31  13  47 SW8       30.44F WCI  23
6HR MIN TEMP:  18; 6HR MAX TEMP:  31;

AURORA         SUNNY     30  15  53 S12       30.43F WCI  20
6HR MIN TEMP:  13; 6HR MAX TEMP:  30;

JOLIET*        SUNNY     32  16  51 S7        30.46F WCI  26
WAUKEGAN       SUNNY     33  13  43 S8        30.40F WCI  26
6HR MIN TEMP:  17; 6HR MAX TEMP:  33;

DUPAGE AIRPORT SUNNY     31  14  49 S9        30.42F WCI  23
6HR MIN TEMP:  15; 6HR MAX TEMP:  31;

KANKAKEE*      MOSUNNY   30  15  52 S7        30.48F WCI  23
WHEELING       SUNNY     31  14  49 S7        30.44F WCI  24
6HR MIN TEMP:  18; 6HR MAX TEMP:  31;

MORRIS*        SUNNY     31  17  55 S10       30.45F WCI  22
ROMEOVILLE*    SUNNY     30  18  59 SE10      30.45F WCI  21
LANSING*       SUNNY     31  17  54 S8        30.47F WCI  24
NORTHERLY ISL*   N/A     30  13  49 S9          N/A  WCI  22
$$

LMZ740>746-011900-
SOUTHERN LAKE MICHIGAN

STATION/POSITION SKY/WX   TEMP    WIND        PRES    VSBY  WAVE
                          AIR SEA DIR/SP/G                  HT/PER
                          (F)     (DEG/KT/KT) (MB)    (MI)  (FT/S)
S. MID LAKE BUOY           31 44  180/  8/ 10 1031.2F         2/ 5
HARRISON CRIB              28     190/ 13/ 14   N/A
NORTHERLY ISL              30     190/ 10       N/A
CALUMET HARBOR             29     180/  7/ 10 1030.7
BURNS HARBOR               31     180/  3/  7 1031.8F
MICHIGAN CITY              29     140/  9     1032.2F
$$

ILZ025>027-034>036-040-047-049-050-058-095>099-011900-
WEST-CENTRAL ILLINOIS

CITY           SKY/WX    TMP DP  RH WIND       PRES   REMARKS
QUINCY         SUNNY     36  16  44 S13       30.40F WCI  27
GALESBURG*     MOSUNNY   32  20  62 S9        30.40F WCI  24
MACOMB*        MOSUNNY   32  17  55 SE13      30.43F WCI  22
JACKSONVILLE*  SUNNY     34  20  55 S8        30.44F WCI  27
PITTSFIELD*    SUNNY     37  20  50 SE10      30.43F WCI  30
$$

ILZ028>032-037-038-041>044-048-051>054-059>061-011900-
CENTRAL ILLINOIS

CITY           SKY/WX    TMP DP  RH WIND       PRES   REMARKS
PONTIAC        MOSUNNY   30  20  66 S9        30.48F WCI  22
BLOOMINGTON    PTSUNNY   30  18  60 S12       30.45F WCI  20
DECATUR        MOSUNNY   32  18  56 SE5       30.49F WCI  27
PEORIA         MOSUNNY   31  17  56 S8        30.43F WCI  23
6HR MIN TEMP:  16; 6HR MAX TEMP:  31;

LACON*         MOSUNNY   31  19  60 SE8       30.43F WCI  24
LINCOLN*       MOSUNNY   33  21  59 SE10      30.47F WCI  25
SPRINGFIELD    SUNNY     35  18  49 SE12      30.45F WCI  27
6HR MIN TEMP:  16; 6HR MAX TEMP:  35;

TAYLORVILLE    SUNNY     33  20  60 SE10      30.48F WCI  25
6HR MIN TEMP:  17; 6HR MAX TEMP:  33;

$$

ILZ033-039-045-046-055>057-062-063-011900-
EAST-CENTRAL ILLINOIS

CITY           SKY/WX    TMP DP  RH WIND       PRES   REMARKS
CHAMPAIGN      PTSUNNY   30  17  58 SE9       30.48F WCI  22
DANVILLE*      PTSUNNY   30  17  59 S8        30.50F WCI  22
RANTOUL*       PTSUNNY   29  17  60 SE8       30.48F WCI  21
MATTOON        MOSUNNY   31  17  56 SE6       30.49F WCI  25
PARIS*         MOSUNNY   29  20  69 SE6       30.52F WCI  23
$$

ILZ079-100>102-011900-
SOUTHWEST ILLINOIS

CITY           SKY/WX    TMP DP  RH WIND       PRES   REMARKS
ALTON          SUNNY     36  18  48 SE13      30.48F WCI  27
BELLEVILLE     MOSUNNY   41  16  36 SE14      30.49F
CAHOKIA*       SUNNY     38  20  48 SE10      30.47F WCI  31
SPARTA*        SUNNY     37  17  46 SE8       30.50F WCI  30
$$

ILZ064>066-069>071-074>076-080>082-084>086-088>090-092>094-011900-
SOUTH-CENTRAL ILLINOIS

CITY           SKY/WX    TMP DP  RH WIND       PRES   REMARKS
CARBONDALE     SUNNY     38  18  44 E7        30.52F WCI  33
6HR MIN TEMP:  20; 6HR MAX TEMP:  38;

CAIRO*         SUNNY     40  20  43 SE3       30.53F
EFFINGHAM*     MOSUNNY   34  17  51 SE8       30.53F WCI  27
MARION         MOSUNNY   39  19  45 S5        30.52F
MT. VERNON     SUNNY     37  19  48 E6        30.52F WCI  32
METROPOLIS*    SUNNY     40  16  38 E5        30.53F
$$

ILZ067-068-072-073-078-083-087-091-011900-
SOUTHEAST ILLINOIS

CITY           SKY/WX    TMP DP  RH WIND       PRES   REMARKS
LAWRENCEVILLE  MOSUNNY   34  20  56 E5        30.53F WCI  30
FLORA*         MOSUNNY   34  18  51 S6        30.53F WCI  29
FAIRFIELD*     SUNNY     34  17  49 E3        30.53F
HARRISBURG*    MOSUNNY   37  27  65 E6        30.54F WCI  33
ROBINSON*      MOSUNNY   32  18  55 CALM      30.54F
CARMI*         MOSUNNY   37  18  44 CALM      30.54S
$$

ABBREVIATIONS USED IN REMARKS
   TC - TEMPERATURE IN CELSIUS
  WCI - WIND CHILL INDEX
   HX - HEAT INDEX
  VSB - VISIBILITY
$$




USA.gov is the U.S. government's official web portal to all federal, state and local government web resources and services.